SL-8 DEB, 13517

Orbit data source: Space-Track

SL-8 DEB, 13517 is space debris in LEO originally from a launch on Mon, 15 Mar 1965 UTC launched from the Tyuratam Missile And Space Complex (TTMTR). Debris objects in space refer to the collection of defunct objects orbiting the Earth. Examples of debris include non-operational satellites, rocket bodies, and fragments generated from explosions, collisions, or faulty payload assembly.

Loading next visibility...
Identifier
13517, 1965-020FF
Orbit
LEO
Country
Flag of CISCIS
Related business
Manufacturer
Unknown
Mission
Spacecraft
Bus & Motor
Unknown
Mass
Unknown
Launch date (UTC)
1965-03-15 (61 years ago)
Launch vehicle
Unknown
Launch site
Tyuratam Missile And Space Complex (TTMTR)
Object type
Payload
Rocket body
Debris
Shape & HBR
Unknown shape, 0.1 m
Radar Cross Section
Small (<0.1 m²)

Expand to show TLE details & history
Last TLE update: 2 days ago

TLE from 2 days ago
0 SL-8 DEB
1 13517U 65020FF  25347.87280440  .00001575  00000-0  12855-2 0  9995
2 13517  55.5669 197.1301 0526401 175.0029 306.0746 13.43385374111166
Epoch: 2025-12-13T20:56Z
TLE epoch observation values (Epoch: 2025-12-13T20:56:50.300Z)
Latitude
47.97221°
Longitude
-69.04129°
Altitude
884.835 km
Speed
7.522 km/s
True Right ascension
21h 51m 50s
True Declination
47° 48' 15"
Sunlit
Object was in daylight at epoch
Visualization orbit readout
Latitude
Unknown
Longitude
Unknown
Altitude
Unknown
Speed
Unknown
Apparent Right ascension
Unknown
Apparent Declination
Unknown
Sunlit
N/A
Visualization observer readout
Local Sidereal Time
15:39:49
Azimuth
Unknown
Elevation
Unknown
Doppler factor
Unknown
Orbital elements
Apogee altitude
1,490.049 km
Perigee altitude
703.109 km
Semi-major axis
7,474.716 km
Eccentricity
0.05264
Inclination
55.5669°
RAAN
197.1301°
Arg. of periapsis
175.0029°
True anomaly
301.00959°
Mean anomaly
306.0746°
Eccentric anomaly
303.56134°
Mean motion
3.35854 °/min
Orbital period
107.19 mins
BSTAR
0.0012855
Loading maneuver chart data...
Computing Atmospheric mass density...
Loading historical data...
Loading historical data...
Loading historical data...
Loading historical data...
Loading historical data...
Loading historical data...
Loading historical data...

Documentation

Showing up to 5 results
|